Regional Weather Roundup
Issued by NWS

Home | Current Version | Previous Version | Graphics & Text | Print | Product List | Glossary On
Versions: 1 2 3 4 5 6 7 8 9 10 11 12 13 14 15 16 17 18 19 20 21 22 23 24 25 26 27 28 29 30 31 32 33 34 35 36 37 38 39 40 41 42 43 44 45 46 47 48 49 50
000
ASUS45 KBOU 282207
RWRCO

WEATHER ROUNDUP FOR COLORADO
NATIONAL WEATHER SERVICE DENVER/BOULDER CO
400 PM MDT SAT MAR 28 2015

NOTE: "FAIR" INDICATES FEW OR NO CLOUDS BELOW 12000 FEET WITH NO
SIGNIFICANT WEATHER AND/OR OBSTRUCTIONS TO VISIBILITY.

COZ001>005-013-030-031-282300-
...NORTHWEST COLORADO...

CITY           SKY/WX    TMP DP  RH WIND       PRES   REMARKS
CRAIG          MOSUNNY   73  24  16 W26G37    30.06F
HAYDEN         MOSUNNY   68  19  15 W22G33    30.07F
MEEKER         MOSUNNY   71  22  15 W20       30.08F
MOUNT WERNER   NOT AVBL
STEAMBOAT SPGS SUNNY     65  24  20 W17G31    30.08F
WALDEN         SUNNY     59  19  21 W20G35    30.13S
$$

COZ006>008-011-282300-
...WEST CENTRAL VALLEYS...

CITY           SKY/WX    TMP DP  RH WIND       PRES   REMARKS
GRAND JUNCTION SUNNY     77  22  13 SW12G21   30.04F
MONTROSE       MOSUNNY   73  20  13 NW12      30.12F
EAGLE          MOSUNNY   70  19  14 SW20G28   30.11F
RIFLE          MOSUNNY   74  22  14 W16G29    30.05F
DELTA          SUNNY     80  20  10 W13G23    30.08S
NUCLA          SUNNY     73  16  11 W10G18    30.16F
$$

COZ017>023-064>068-282300-
...SOUTHWEST COLORADO...

CITY           SKY/WX    TMP DP  RH WIND       PRES   REMARKS
DURANGO        SUNNY     70  22  16 SW21G30   30.16F
CORTEZ         SUNNY     72  17  12 W15G24    30.16F
PAGOSA SPRINGS MOSUNNY   67  13  12 SW12G21   30.21F
TELLURIDE      MOSUNNY   60  15  17 NW7G17    30.31F
WOLF CREEK PAS MOSUNNY   43  21  42 SW18G26   30.45F
$$

COZ009-010-012-014-032>034-037-058>063-282300-
...CENTRAL COLORADO...

CITY           SKY/WX    TMP DP  RH WIND       PRES   REMARKS
ASPEN          MOSUNNY   64  16  15 N14G23    30.16F
BUENA VISTA    MOSUNNY   65  10  11 W22G32    30.17S
COPPER MTN     MOSUNNY   45   5  19 W18G36    30.38S
BERTHOUD PASS  FAIR      36  30  80 W23G43    30.37R
COTTONWOOD PAS MOSUNNY   59   5  11 NW5       30.26F
GUNNISON       SUNNY     64  18  16 W13G24    30.22F
KREMMLING      MOSUNNY   70  12  11 W14G24    30.13F
LEADVILLE      MOSUNNY   47  16  29 W15G21    30.27F
SALIDA         MOSUNNY   70  14  11 SW21G26   30.21F
SUNLIGHT       MOSUNNY   52  19  28 CALM      30.36F
WILKERSON PASS SUNNY     52  10  19 W7        30.35S
$$

COZ069>075-282300-
...SAN LUIS VALLEY/SANGRE DE CRISTO MOUNTAINS...

CITY           SKY/WX    TMP DP  RH WIND       PRES   REMARKS
ALAMOSA        SUNNY     67  14  13 CALM      30.15F
LA VETA PASS   SUNNY     55  18  22 SW12G24   30.28F
SAGUACHE       SUNNY     68  18  14 NW21G29   30.17F
$$

COZ035-036-038>040-282300-
...NORTHERN COLORADO FRONT RANGE...

CITY           SKY/WX    TMP DP  RH WIND       PRES   REMARKS
DENVER INTL AP MOSUNNY   78  19  11 W17G28    29.94F
DMNS CITY PARK   N/A     76  19  12 W20       29.93F
AURORA         MOSUNNY   76  20  12 N18G25    29.96F
FRONT RANGE AP MOSUNNY   79  23  12 W15         N/A
ERIE MUNI ARPT SUNNY     78  18  10 SW10G22   29.93F
BOULDER MUN AP SUNNY     75  25  15 NW14G22   29.94F
CENTENNIAL     MOSUNNY   75  19  12 VRB7      29.97F
BROOMFIELD     MOSUNNY   75  21  13 W23G31    29.98F
FORT COLLINS   SUNNY     79  25  13 W5        29.90F
LONGMONT       SUNNY     82  22  11 CALM      29.94F
$$

COZ041-046-047-076>085-087-088-282300-
...PIKES PEAK/PALMER DIVIDE AND SOUTHERN FOOTHILLS...

CITY           SKY/WX    TMP DP  RH WIND       PRES   REMARKS
COLO. SPRINGS  MOSUNNY   75  15  10 VRB5      30.01F
A. F. ACADEMY  MOSUNNY   74  13  10 SW8       30.01F
ELLICOTT       SUNNY    N/A N/A N/A S17       30.00F
FALCON         SUNNY     73  17  12 S8        30.06F
FORT CARSON    MOSUNNY   77  20  11 W16       29.97F
LIMON          SUNNY     75  17  11 W12G25    29.97F
MONUMENT HILL  MOSUNNY   70  18  13 S6G17     30.04F
TRINIDAD       SUNNY     76  18  11 VRB6      30.02F
$$

COZ042>045-048>051-090-091-282300-
...NORTHEAST COLORADO...

CITY           SKY/WX    TMP DP  RH WIND       PRES   REMARKS
GREELEY ARPT   SUNNY     79  21  11 SW7       29.89F
AKRON          SUNNY     79  23  12 SW16      29.90F
BURLINGTON     SUNNY     79  20  11 W10       29.94F
WRAY           SUNNY     83  23  11 W8G24     29.87F
STERLING       SUNNY     81  27  13 W15       29.84F
HOLYOKE        NOT AVBL
FORT MORGAN    SUNNY     80 -27   1 SW7G17    29.90F
$$

COZ086-089-092>099-282300-
...SOUTHEAST COLORADO...

CITY           SKY/WX    TMP DP  RH WIND       PRES   REMARKS
PUEBLO         SUNNY     79  21  11 S13G20    29.94F
LA JUNTA       SUNNY     81  22  11 VRB3      29.94F
LAMAR          SUNNY     82  21  10 W13G22    29.92F
SPRINGFIELD      N/A     79  20  11 NW6       29.97F
$$


USA.gov is the U.S. government's official web portal to all federal, state and local government web resources and services.